Charleston, WV

5:36 PM EST on February 24, 2017 (GMT -0500)
Yeager Airport

Weather History for KCRW - October, 2012

Change the Weather History Date:

Sunday, October 7, 2012

  Actual Average Record
Temperature  
Mean Temperature 46 °F 59 °F  
Max Temperature 54 °F 70 °F 93 °F (1941)
Min Temperature 38 °F 48 °F 30 °F (1964)
Degree Days  
Heating Degree Days 19 7  
Month to date heating degree days 36 41  
Since 1 July heating degree days 101 99  
Cooling Degree Days 0 1  
Month to date cooling degree days 13 9  
Year to date cooling degree days 1339 1082  
Moisture  
Dew Point 41 °F    
Average Humidity 74    
Maximum Humidity 93    
Minimum Humidity 54    
Precipitation  
Precipitation T in 0.09 in 1.55 in (1903)
Month to date precipitation 0.45 0.61  
Year to date precipitation 31.39 34.97  
Snow  
Snow 0.00 in - - ()
Month to date snowfall 0.0  
Since 1 September snowfall 0.0  
Snow Depth 0.00 in    
Sea Level Pressure  
Sea Level Pressure 30.12 in    
Wind  
Wind Speed 2 mph (NW)    
Max Wind Speed 9 mph    
Max Gust Speed 15 mph    
Visibility 9 miles    
Events      
T = Trace of Precipitation, MM = Missing Value Source: NWS Daily Summary

Daily Weather History Graph

Daily Weather History Graph

Search for Another Location

Airport or City:

Trip Planner

Search our weather history database for the weather conditions in past years. The results will help you decide how hot, cold, wet, or windy it might be!

Date:

Astronomy

Oct. 07, 2012 Rise Set
Actual Time 7:28 AM EDT 6:59 PM EDT
Civil Twilight 7:01 AM EDT 7:25 PM EDT
Nautical Twilight 6:30 AM EDT 7:56 PM EDT
Astronomical Twilight 6:00 AM EDT 8:27 PM EDT
Moon No Moon Rise 2:01 PM EDT (10/7)
Length of Visible Light 12h 24m
Length of Day
11h 31m
Waning Gibbous, 56% of the Moon is Illuminated
Oct 7
Waning Gibbous
Oct 8
Last Quarter
Oct 15
New
Oct 21
First Quarter
Oct 29
Full

Hourly Weather History & Observations

Time (EDT) Temp. Dew Point Humidity Pressure Visibility Wind Dir Wind Speed Gust Speed Precip Events Conditions
12:54 AM 45.0 °F 43.0 °F 93% 30.09 in 8.0 mi Calm Calm - N/A   Mostly Cloudy
1:39 AM 46.4 °F 44.6 °F 93% 30.08 in 6.0 mi Calm Calm - N/A   Overcast
1:54 AM 46.0 °F 44.1 °F 93% 30.08 in 6.0 mi Calm Calm - N/A   Overcast
2:54 AM 46.4 °F 44.6 °F 93% 30.08 in 6.0 mi Calm Calm - N/A   Overcast
3:54 AM 46.9 °F 45.0 °F 93% 30.07 in 6.0 mi Calm Calm - N/A   Overcast
4:54 AM 46.9 °F 45.0 °F 93% 30.06 in 6.0 mi Calm Calm - N/A   Overcast
5:54 AM 46.9 °F 45.0 °F 93% 30.06 in 5.0 mi Calm Calm - N/A   Overcast
6:54 AM 46.9 °F 45.0 °F 93% 30.07 in 6.0 mi Calm Calm - N/A   Overcast
7:54 AM 46.9 °F 44.1 °F 90% 30.08 in 10.0 mi NNW 3.5 mph - N/A   Overcast
8:54 AM 48.0 °F 43.0 °F 83% 30.09 in 10.0 mi Calm Calm - N/A   Overcast
9:22 AM 48.2 °F 42.8 °F 82% 30.10 in 10.0 mi Calm Calm - N/A   Overcast
9:54 AM 48.9 °F 42.1 °F 77% 30.09 in 10.0 mi Calm Calm - N/A   Overcast
10:54 AM 50.0 °F 42.1 °F 74% 30.11 in 10.0 mi Calm Calm - N/A   Overcast
11:54 AM 50.0 °F 42.1 °F 74% 30.11 in 10.0 mi West 4.6 mph - N/A   Overcast
12:54 PM 51.1 °F 41.0 °F 68% 30.12 in 10.0 mi Variable 5.8 mph - N/A   Overcast
1:54 PM 51.1 °F 41.0 °F 68% 30.12 in 10.0 mi West 5.8 mph - N/A   Overcast
2:54 PM 50.0 °F 41.0 °F 71% 30.12 in 10.0 mi North 4.6 mph - 0.00 in   Overcast
3:54 PM 52.0 °F 39.0 °F 61% 30.14 in 10.0 mi Variable 5.8 mph - N/A   Mostly Cloudy
4:54 PM 54.0 °F 37.9 °F 55% 30.14 in 10.0 mi West 4.6 mph - N/A   Mostly Cloudy
5:54 PM 51.1 °F 37.0 °F 59% 30.14 in 10.0 mi NNW 6.9 mph - N/A   Mostly Cloudy
6:54 PM 48.9 °F 37.0 °F 64% 30.15 in 10.0 mi Calm Calm - N/A   Scattered Clouds
7:54 PM 46.9 °F 37.0 °F 68% 30.17 in 10.0 mi Calm Calm - N/A   Partly Cloudy
8:54 PM 43.0 °F 39.0 °F 86% 30.19 in 10.0 mi Calm Calm - N/A   Clear
9:54 PM 42.1 °F 37.9 °F 85% 30.20 in 10.0 mi Calm Calm - N/A   Clear
10:54 PM 39.9 °F 37.9 °F 93% 30.20 in 10.0 mi Calm Calm - N/A   Clear
11:29 PM 39.2 °F 37.4 °F 93% 30.19 in 10.0 mi Calm Calm - N/A   Partly Cloudy
11:54 PM 39.0 °F 37.0 °F 93% 30.19 in 10.0 mi Calm Calm - N/A   Partly Cloudy